Vorticity
10 10 9 9 8 8 7 6 6 6 6 6 6 6 5 5 5 5 4 4 5 5 6 6 7 8 9 10 10 11 11 12 12 13 13 13 13 13 13 13 17 23 28 32 32 29 24 17 11 6 2 -0 19 27 25 16 9 3 -0 -1 -0 -1 -1 0 2 4 6 6 5
10 9 8 8 7 7 6 5 5 5 5 5 6 6 6 6 7 7 7 6 7 7 7 8 8 9 10 11 12 12 12 12 13 13 14 15 14 14 13 12 13 17 22 28 32 32 30 25 17 10 3 -5 -1 10 21 22 19 13 6 1 2 2 2 3 7 10 11 11 6
10 9 8 7 7 6 5 5 5 5 5 5 6 6 7 7 8 9 9 9 9 9 9 9 10 10 11 12 13 13 13 13 14 14 15 16 16 16 14 13 12 13 16 21 27 31 32 32 26 18 8 -0 -7 -7 -2 7 19 22 19 9 4 2 2 1 7 13 17 20 12
9 9 8 7 6 5 5 4 5 5 5 6 6 7 7 8 9 10 11 11 11 11 10 10 11 11 12 13 14 14 15 15 15 16 17 18 18 18 16 15 13 12 13 15 20 25 30 33 31 26 17 7 -1 -8 -13 -15 -1 19 32 23 10 4 2 3 13 21 26 26 21
9 9 8 7 6 5 4 4 5 5 6 7 7 8 8 9 10 11 12 12 12 12 11 11 11 12 13 13 14 15 16 17 17 18 19 20 20 20 19 17 15 13 12 13 15 19 24 29 31 30 25 17 10 4 -3 -11 -16 5 30 41 28 21 18 18 19 21 22 23 23
8 7 7 6 5 5 4 4 4 5 6 7 7 8 8 9 10 11 12 13 13 12 12 11 12 12 13 14 15 16 17 18 19 20 21 22 22 22 21 19 17 15 13 12 13 15 19 23 27 28 27 22 19 20 19 9 -5 -3 13 38 34 37 42 44 28 18 15 18 20
7 6 6 6 5 5 5 5 5 5 6 6 7 7 8 9 9 10 12 13 13 13 13 12 13 13 14 15 16 17 17 18 20 21 22 23 24 23 22 21 19 17 15 13 13 14 15 18 22 24 24 20 18 21 26 29 21 15 21 48 39 37 38 37 19 8 5 10 12
7 7 7 6 6 6 6 6 6 6 6 6 7 8 8 9 9 11 12 13 13 13 13 13 13 14 15 16 16 17 17 18 19 20 22 23 24 24 23 22 20 18 17 15 14 14 14 15 17 19 19 17 14 15 21 32 37 50 68 92 64 40 21 6 -2 -4 -4 -2 -2
10 9 9 8 8 8 8 7 7 7 7 7 7 8 9 9 10 11 13 14 14 14 14 14 15 16 16 17 17 16 16 17 18 19 20 21 22 23 23 22 21 20 19 17 16 16 15 15 16 16 15 14 13 13 14 19 36 65 88 84 51 22 -0 -12 -9 -5 -2 -1 -2
12 12 12 12 11 11 10 9 9 8 8 8 8 9 9 10 10 11 13 14 14 14 14 14 16 17 17 17 16 16 16 16 18 19 20 20 21 22 22 22 22 21 20 19 18 18 17 17 16 15 14 14 15 15 15 14 22 34 39 26 8 -9 -21 -24 -16 -6 2 7 6
13 13 14 14 14 13 12 11 10 10 9 9 10 10 10 10 11 12 13 14 15 15 14 15 16 18 18 17 15 15 15 16 18 19 20 21 21 22 22 22 22 22 21 21 20 20 20 19 18 16 15 15 16 18 19 18 14 4 -7 -18 -20 -25 -29 -29 -15 -3 7 12 11
14 14 14 14 14 13 13 12 11 10 10 10 11 11 11 11 12 13 14 15 15 15 14 15 17 19 18 16 14 14 15 16 18 19 20 21 22 22 23 24 24 24 23 22 22 21 21 21 20 19 18 17 17 18 19 21 21 9 -8 -24 -22 -14 -5 1 10 14 15 14 13
14 14 14 14 13 13 12 11 11 11 11 11 11 12 12 12 12 13 14 15 15 15 14 15 17 18 18 16 14 13 14 16 18 19 19 20 21 22 24 25 26 26 26 25 24 23 22 21 20 20 19 20 19 17 15 16 24 21 9 -9 -12 -3 14 34 40 34 23 13 12
13 14 13 13 13 12 12 11 11 11 11 11 11 12 12 12 13 14 15 16 15 15 14 14 16 18 18 16 13 13 13 16 17 18 18 18 19 19 20 22 24 26 27 28 26 24 22 20 19 18 18 19 19 15 11 11 18 22 20 8 -4 -8 -3 15 36 42 36 23 14
13 13 13 13 13 12 12 12 11 11 11 11 11 11 11 12 13 14 15 16 15 14 13 13 15 16 16 15 12 11 12 14 16 17 17 17 17 17 17 18 19 21 24 27 27 26 23 20 17 16 15 16 16 13 10 9 10 14 16 10 1 -5 -10 -16 -6 10 25 32 28
13 13 13 13 13 13 13 13 12 12 12 12 11 11 11 11 13 14 16 16 15 14 13 13 13 14 15 13 10 9 9 12 15 17 17 17 16 15 16 16 17 18 20 23 25 25 25 23 19 15 11 10 14 18 19 16 12 10 9 6 1 2 1 -9 -19 -19 -10 9 26
12 13 13 13 13 13 13 13 13 13 12 12 11 11 10 11 13 14 15 15 14 14 13 12 12 13 14 13 9 7 6 8 12 15 17 16 14 13 13 14 17 19 20 21 22 24 26 28 26 19 10 -1 7 24 38 37 23 12 5 3 4 7 8 4 -1 -6 -11 -13 -0
12 12 12 13 13 13 14 14 14 13 13 12 11 11 10 11 12 14 15 14 14 14 13 12 12 12 13 12 10 7 5 6 9 13 15 15 13 10 9 11 15 18 21 21 21 22 24 29 32 28 17 -2 -8 7 28 43 34 21 8 1 6 10 13 15 17 17 12 1 -7
12 12 12 13 13 14 14 14 14 14 13 13 12 11 10 10 12 14 14 14 13 13 14 13 12 12 12 11 10 7 5 5 7 10 12 13 12 10 8 9 12 16 20 22 21 21 22 26 31 32 27 15 -0 -1 10 31 36 30 18 8 11 15 18 20 25 28 28 22 10
11 12 13 13 13 14 14 14 14 14 14 13 12 11 11 10 12 13 14 13 13 13 14 14 13 12 11 10 9 8 6 5 6 7 9 11 11 11 9 9 11 14 17 19 20 19 19 21 26 30 30 28 19 15 17 30 39 38 32 22 19 17 17 18 22 28 31 31 25
12 12 12 13 13 14 14 15 15 15 15 14 13 12 11 11 12 13 13 13 12 13 14 15 13 12 10 9 9 8 7 6 5 5 7 8 10 10 11 10 11 13 15 17 18 18 18 18 21 23 25 26 23 21 21 27 36 39 36 28 20 15 13 14 18 24 28 31 30
12 12 12 13 13 13 14 14 15 15 15 15 14 12 11 11 12 13 13 12 11 12 14 16 14 12 10 8 8 7 7 6 5 5 5 6 7 9 10 11 12 13 15 16 18 19 19 18 17 16 16 18 17 15 14 15 20 24 24 22 20 18 17 17 18 20 23 24 24
12 12 12 12 13 13 13 14 15 15 16 16 14 13 12 12 12 12 12 12 10 11 13 16 16 14 11 8 7 7 7 6 6 5 5 5 6 7 9 11 12 14 16 17 16 16 17 19 17 14 12 11 12 12 10 9 10 10 9 8 9 12 15 16 16 16 16 15 15
12 12 12 12 12 12 13 13 14 15 16 16 15 14 13 12 12 12 11 11 10 10 11 15 17 16 14 10 8 7 6 6 6 6 5 5 5 6 7 8 10 13 16 19 17 15 13 15 16 16 15 15 16 17 18 18 16 13 10 6 4 5 7 10 11 12 11 11 12
12 12 12 12 12 12 13 13 14 15 16 16 16 16 15 13 12 12 11 10 9 9 9 12 16 18 17 14 10 8 6 6 6 6 6 6 5 5 5 6 8 12 17 22 22 19 16 14 17 19 21 23 24 26 27 26 24 20 16 13 11 9 8 9 10 11 12 13 14
12 12 11 11 11 12 13 13 14 14 15 15 17 18 17 15 13 11 10 10 9 8 8 8 13 17 19 18 13 10 7 6 6 6 6 6 6 6 5 5 6 8 13 20 23 22 18 14 16 19 21 23 24 24 25 25 22 19 16 14 13 13 12 11 12 13 14 15 17
11 11 11 11 11 12 13 13 13 13 14 14 17 19 19 16 13 12 10 10 9 9 8 7 9 13 18 21 18 14 10 7 6 5 5 5 6 6 6 5 5 5 6 8 12 14 14 11 11 13 15 17 17 16 17 17 17 17 16 14 14 13 13 13 13 14 15 16 16
11 11 11 11 11 12 12 12 13 13 13 14 17 19 20 18 14 12 10 10 10 9 9 7 7 10 14 19 21 19 15 10 7 5 4 5 6 6 7 7 6 6 5 3 4 7 7 4 4 5 8 10 10 10 10 10 12 14 15 16 16 15 15 14 14 14 14 14 14
10 10 10 11 11 11 12 12 13 13 13 13 15 17 19 19 16 13 10 9 9 9 9 9 9 8 8 12 17 20 20 17 13 9 6 5 5 6 7 7 8 8 7 5 7 9 8 2 -2 -2 1 5 7 7 7 7 8 9 11 13 14 15 16 16 16 15 15 13 12
10 10 10 10 11 11 12 12 12 12 12 12 13 14 16 18 17 15 12 9 9 10 10 10 9 7 6 6 11 16 19 21 19 15 12 9 6 5 5 6 6 7 6 4 6 10 13 9 2 -2 -3 -0 2 4 6 6 6 6 6 7 8 9 10 11 12 13 13 12 11
10 9 10 10 10 10 11 11 11 11 12 12 12 13 14 16 17 16 14 12 11 11 11 10 9 8 7 7 7 10 14 19 21 21 18 15 12 8 6 5 5 4 3 1 2 7 11 12 8 5 1 -0 0 1 1 2 2 3 4 4 3 3 3 3 4 4 5 6 5
11 10 10 10 10 10 10 10 10 11 11 11 11 12 12 13 14 15 15 14 13 12 12 11 11 10 10 9 8 8 11 14 18 21 22 20 18 15 12 10 8 6 4 4 4 6 9 11 10 9 7 5 3 2 1 1 1 2 3 5 5 4 3 1 -0 -1 -1 -1 -1
13 13 13 12 11 11 10 10 10 10 10 11 11 11 11 11 12 13 14 14 14 13 13 12 12 12 12 12 11 10 9 10 14 17 20 22 22 22 20 18 16 13 11 10 9 9 9 10 9 9 8 8 7 7 6 6 7 7 7 7 8 8 7 6 5 3 2 0 0
17 17 17 16 15 14 13 12 11 10 10 10 10 10 10 10 11 11 12 13 13 14 14 13 13 13 13 13 12 11 10 10 12 14 17 19 22 25 27 28 29 28 24 19 15 13 11 10 9 8 7 7 7 8 8 9 10 11 11 11 11 11 11 10 10 10 9 7 6
20 20 20 20 19 18 17 16 14 13 11 10 10 10 10 10 10 10 10 11 12 13 13 14 13 13 13 13 13 12 12 11 12 13 14 16 18 22 26 31 36 37 35 28 23 22 23 19 15 11 9 7 7 6 7 7 8 8 9 10 10 10 10 10 11 11 12 12 12
19 20 20 21 21 21 20 20 18 16 14 13 12 11 11 11 11 10 10 10 10 11 12 12 13 13 13 13 13 13 12 11 11 12 12 13 14 17 21 26 30 32 30 22 17 22 29 27 23 19 16 14 11 10 8 7 7 6 5 5 5 6 7 8 9 11 12 13 13
17 17 18 18 19 20 21 21 21 20 18 17 15 14 13 12 12 11 11 11 10 10 10 11 11 12 12 13 13 13 13 12 11 11 12 12 12 13 16 19 22 24 22 12 0 7 20 23 24 24 24 23 22 21 19 18 16 14 13 11 10 10 11 12 13 14 14 14 15
13 14 15 15 16 18 19 20 21 22 21 21 19 18 16 15 14 13 13 12 11 10 10 10 10 11 11 12 12 13 13 13 13 12 12 12 12 11 12 15 18 21 19 11 -4 3 17 20 21 22 24 25 28 29 31 31 31 30 29 28 27 26 24 24 23 22 22 21 20
11 12 12 13 13 14 16 18 19 21 22 22 22 21 20 19 18 16 15 14 13 12 11 10 10 10 10 10 11 12 13 13 13 13 13 13 12 12 11 12 16 20 20 15 -3 -2 9 18 19 20 22 24 26 28 30 32 34 36 36 36 36 36 35 34 33 32 31 30 28
10 11 11 11 12 12 14 15 17 18 19 21 22 23 23 22 21 20 18 17 16 14 13 11 10 10 9 10 10 11 11 12 12 12 13 13 13 13 12 11 14 18 20 16 2 -1 2 12 16 19 21 23 22 22 22 23 24 26 27 29 31 32 32 33 34 34 34 34 33
10 10 10 11 11 12 12 13 14 16 17 18 20 22 22 23 23 22 21 20 18 17 15 13 12 11 10 10 10 10 10 11 11 11 11 12 13 13 13 11 12 15 17 15 9 2 -2 2 10 16 20 22 22 20 18 15 15 15 17 19 22 23 23 23 26 28 29 29 30
Height
3008 3006 3004 3003 3002 3000 2999 2997 2996 2994 2993 2991 2989 2988 2987 2985 2984 2982 2981 2980 2978 2976 2975 2973 2972 2971 2970 2969 2967 2967 2966 2965 2965 2964 2963 2963 2962 2962 2961 2961 2960 2960 2960 2960 2960 2961 2962 2963 2964 2964 2965 2964 2965 2967 2968 2969 2970 2971 2971 2972 2973 2974 2975 2976 2975 2975 2976 2977 2978
3007 3005 3003 3002 3000 2999 2997 2996 2995 2993 2992 2990 2988 2987 2985 2984 2982 2981 2979 2978 2976 2974 2973 2971 2970 2968 2967 2966 2965 2964 2962 2962 2961 2961 2960 2960 2959 2958 2958 2957 2957 2957 2957 2957 2957 2957 2958 2959 2960 2961 2961 2961 2962 2962 2963 2964 2966 2967 2967 2968 2969 2970 2972 2972 2972 2973 2973 2974 2975
3005 3004 3002 3001 2999 2998 2996 2995 2993 2992 2990 2988 2987 2985 2984 2982 2980 2979 2977 2976 2974 2972 2971 2969 2967 2966 2965 2963 2962 2961 2960 2958 2957 2957 2956 2956 2955 2955 2954 2954 2953 2953 2953 2953 2954 2954 2955 2955 2956 2957 2958 2958 2958 2958 2959 2960 2962 2963 2963 2964 2965 2967 2968 2968 2970 2970 2970 2970 2971
3004 3003 3001 3000 2998 2996 2994 2993 2991 2990 2988 2987 2985 2983 2982 2980 2978 2977 2975 2973 2972 2970 2968 2967 2965 2963 2962 2961 2959 2958 2957 2955 2954 2953 2952 2952 2952 2951 2951 2950 2950 2950 2950 2950 2951 2951 2951 2952 2952 2953 2954 2955 2956 2955 2954 2955 2957 2958 2960 2960 2962 2963 2965 2966 2967 2968 2968 2967 2967
3003 3002 3000 2998 2997 2995 2993 2991 2990 2988 2986 2985 2983 2982 2980 2978 2977 2975 2973 2971 2970 2968 2966 2964 2963 2961 2959 2958 2957 2955 2954 2952 2951 2950 2949 2948 2948 2947 2947 2947 2947 2947 2947 2947 2947 2948 2948 2948 2949 2950 2951 2952 2952 2952 2951 2950 2952 2954 2956 2957 2958 2960 2962 2963 2964 2965 2965 2963 2962
3002 3000 2998 2997 2995 2993 2992 2990 2988 2986 2984 2982 2981 2980 2978 2976 2974 2972 2971 2969 2967 2965 2964 2962 2960 2959 2957 2955 2954 2952 2951 2949 2948 2947 2945 2945 2944 2944 2943 2943 2943 2943 2943 2944 2944 2945 2945 2945 2946 2946 2947 2948 2949 2949 2948 2947 2948 2950 2953 2955 2956 2958 2960 2960 2961 2961 2961 2959 2959
3000 2998 2997 2995 2993 2992 2990 2988 2986 2984 2982 2981 2979 2977 2976 2974 2972 2971 2969 2967 2965 2963 2961 2960 2958 2956 2954 2952 2951 2949 2948 2946 2945 2944 2942 2942 2941 2940 2940 2940 2940 2940 2940 2941 2941 2942 2942 2942 2942 2943 2943 2945 2946 2946 2945 2944 2945 2947 2949 2951 2953 2955 2957 2957 2957 2957 2956 2955 2956
2998 2997 2995 2993 2991 2990 2988 2986 2984 2982 2981 2979 2977 2976 2974 2972 2970 2968 2967 2965 2963 2961 2959 2957 2956 2954 2952 2950 2948 2947 2945 2943 2942 2941 2940 2939 2938 2937 2937 2937 2937 2937 2937 2937 2938 2938 2939 2940 2940 2940 2941 2941 2943 2944 2944 2943 2944 2946 2947 2947 2948 2951 2953 2953 2953 2953 2953 2953 2954
2996 2995 2993 2991 2989 2988 2986 2984 2982 2980 2978 2977 2975 2974 2972 2970 2968 2966 2964 2962 2961 2959 2957 2955 2953 2952 2950 2948 2946 2944 2943 2941 2940 2938 2937 2936 2935 2934 2934 2934 2934 2934 2934 2935 2935 2935 2936 2937 2937 2937 2938 2938 2940 2941 2942 2942 2944 2945 2944 2942 2943 2946 2947 2947 2948 2949 2950 2951 2952
2994 2992 2991 2989 2987 2986 2984 2982 2980 2978 2977 2975 2973 2972 2970 2968 2967 2964 2962 2960 2958 2957 2955 2953 2951 2949 2947 2946 2944 2942 2941 2939 2937 2936 2935 2934 2933 2932 2932 2931 2931 2931 2932 2932 2932 2932 2933 2934 2934 2935 2935 2936 2937 2938 2940 2940 2943 2944 2943 2941 2940 2941 2942 2943 2945 2947 2948 2949 2950
2992 2990 2988 2987 2985 2983 2982 2980 2978 2976 2974 2972 2971 2969 2968 2966 2964 2962 2960 2958 2957 2955 2953 2951 2949 2947 2946 2944 2942 2941 2939 2937 2936 2934 2932 2932 2931 2930 2929 2929 2929 2929 2929 2929 2929 2930 2930 2931 2931 2932 2932 2933 2934 2936 2937 2938 2940 2942 2942 2941 2940 2940 2940 2941 2943 2945 2946 2947 2948
2990 2988 2986 2985 2983 2981 2979 2977 2976 2974 2972 2970 2969 2967 2966 2964 2962 2960 2958 2957 2955 2953 2951 2949 2947 2946 2944 2942 2941 2939 2937 2936 2934 2932 2931 2930 2929 2928 2927 2927 2927 2927 2927 2927 2927 2927 2927 2928 2929 2929 2930 2931 2932 2933 2934 2936 2936 2938 2939 2940 2940 2939 2939 2939 2939 2940 2941 2943 2944
2988 2986 2984 2982 2981 2979 2977 2975 2973 2972 2970 2968 2966 2965 2963 2962 2960 2958 2957 2955 2953 2951 2949 2948 2946 2944 2942 2941 2939 2937 2936 2934 2932 2931 2929 2928 2927 2927 2926 2925 2925 2924 2924 2924 2924 2924 2925 2926 2926 2927 2927 2928 2929 2930 2932 2933 2934 2935 2937 2938 2938 2939 2939 2938 2938 2937 2937 2937 2939
2986 2984 2982 2980 2978 2976 2974 2973 2971 2969 2967 2966 2964 2962 2961 2960 2958 2956 2955 2953 2951 2949 2947 2946 2944 2943 2941 2939 2937 2936 2934 2932 2931 2930 2928 2927 2926 2925 2924 2924 2923 2922 2922 2922 2922 2922 2923 2923 2923 2924 2925 2925 2927 2927 2929 2931 2932 2933 2934 2936 2937 2937 2937 2937 2937 2937 2936 2935 2936
2983 2981 2979 2977 2976 2974 2972 2970 2968 2967 2965 2963 2962 2960 2959 2957 2956 2954 2953 2951 2949 2947 2946 2944 2943 2941 2940 2938 2937 2935 2933 2932 2930 2929 2927 2926 2925 2924 2923 2922 2922 2921 2921 2920 2920 2920 2921 2921 2921 2922 2922 2923 2924 2925 2927 2929 2931 2931 2932 2933 2934 2934 2934 2935 2935 2935 2936 2936 2936
2981 2979 2977 2975 2973 2972 2970 2968 2966 2965 2963 2961 2959 2958 2957 2955 2954 2952 2951 2949 2947 2946 2944 2943 2941 2940 2938 2937 2936 2934 2933 2931 2930 2928 2926 2925 2924 2923 2922 2921 2921 2920 2919 2919 2918 2918 2919 2919 2920 2920 2921 2922 2923 2924 2925 2927 2929 2929 2929 2930 2930 2931 2932 2932 2932 2932 2933 2935 2936
2979 2977 2975 2973 2972 2970 2968 2966 2964 2962 2961 2959 2957 2956 2954 2953 2952 2950 2949 2947 2946 2944 2943 2941 2940 2938 2937 2936 2934 2933 2932 2931 2929 2927 2926 2924 2923 2922 2922 2921 2920 2919 2918 2917 2917 2917 2917 2918 2918 2919 2920 2921 2922 2922 2924 2925 2926 2926 2926 2927 2927 2928 2929 2930 2930 2930 2930 2932 2933
2977 2975 2973 2972 2970 2968 2966 2964 2963 2961 2959 2957 2956 2954 2952 2951 2950 2949 2947 2946 2944 2943 2942 2940 2939 2937 2936 2934 2933 2932 2931 2930 2928 2927 2925 2924 2923 2922 2921 2920 2919 2918 2917 2917 2916 2916 2916 2917 2917 2917 2918 2919 2919 2920 2921 2922 2922 2922 2923 2924 2924 2925 2926 2927 2927 2928 2928 2929 2930
2975 2973 2972 2970 2968 2966 2964 2962 2961 2959 2957 2955 2954 2952 2951 2949 2948 2947 2946 2945 2943 2942 2940 2939 2937 2936 2935 2933 2932 2931 2930 2929 2927 2926 2925 2924 2922 2922 2921 2920 2918 2917 2916 2916 2915 2915 2915 2915 2916 2916 2917 2917 2917 2918 2918 2919 2919 2920 2920 2921 2922 2922 2923 2924 2925 2925 2925 2926 2928
2974 2972 2970 2968 2966 2964 2962 2961 2959 2957 2955 2954 2952 2950 2949 2947 2946 2945 2944 2943 2942 2941 2939 2938 2937 2935 2934 2932 2931 2930 2929 2928 2927 2926 2924 2923 2922 2921 2920 2919 2918 2917 2916 2915 2914 2914 2914 2914 2914 2915 2915 2916 2917 2917 2917 2917 2917 2918 2918 2919 2920 2920 2921 2922 2922 2922 2923 2924 2926
2972 2970 2968 2966 2964 2962 2961 2959 2957 2955 2954 2952 2950 2949 2947 2946 2945 2943 2942 2942 2940 2939 2938 2937 2935 2934 2933 2932 2930 2929 2928 2927 2926 2925 2924 2923 2922 2921 2920 2918 2918 2917 2916 2914 2913 2913 2912 2912 2913 2913 2914 2915 2915 2916 2916 2916 2916 2916 2917 2917 2918 2919 2919 2919 2919 2920 2920 2922 2923
2971 2968 2967 2964 2962 2961 2959 2957 2955 2954 2952 2950 2949 2947 2946 2944 2943 2942 2941 2940 2939 2937 2937 2935 2934 2933 2932 2930 2929 2928 2927 2926 2926 2925 2923 2922 2921 2920 2919 2918 2917 2917 2916 2914 2913 2912 2911 2911 2911 2912 2912 2912 2913 2914 2914 2914 2914 2914 2915 2916 2916 2917 2917 2917 2917 2918 2919 2920 2921
2969 2967 2965 2963 2961 2959 2957 2956 2954 2952 2951 2949 2947 2946 2944 2943 2942 2940 2939 2938 2937 2936 2935 2934 2933 2932 2930 2929 2928 2927 2926 2925 2925 2924 2923 2922 2921 2920 2919 2918 2917 2916 2916 2915 2913 2912 2911 2910 2910 2910 2910 2911 2911 2912 2912 2912 2913 2913 2913 2914 2915 2915 2915 2916 2916 2917 2917 2918 2920
2968 2966 2963 2962 2959 2957 2956 2954 2952 2951 2949 2947 2946 2944 2943 2941 2940 2939 2938 2937 2935 2934 2933 2932 2931 2930 2929 2928 2927 2926 2925 2924 2924 2923 2922 2922 2920 2919 2918 2917 2917 2916 2915 2915 2913 2912 2911 2910 2909 2909 2910 2910 2910 2911 2911 2911 2912 2912 2912 2913 2913 2913 2914 2914 2915 2916 2916 2917 2918
2966 2964 2962 2960 2958 2956 2954 2952 2951 2949 2947 2946 2944 2943 2941 2940 2938 2937 2936 2935 2934 2933 2932 2931 2930 2929 2927 2927 2926 2925 2924 2923 2922 2922 2921 2921 2920 2919 2918 2917 2916 2915 2915 2914 2914 2912 2910 2910 2909 2909 2909 2909 2909 2909 2910 2910 2911 2911 2911 2912 2912 2912 2912 2913 2913 2914 2915 2915 2916
2965 2963 2961 2959 2957 2955 2953 2951 2949 2947 2946 2944 2943 2941 2940 2939 2937 2936 2934 2933 2932 2931 2930 2929 2928 2927 2926 2925 2924 2923 2922 2922 2921 2920 2920 2919 2918 2918 2917 2917 2916 2915 2915 2914 2915 2913 2910 2910 2909 2908 2908 2908 2908 2908 2909 2909 2909 2910 2910 2910 2911 2911 2911 2912 2912 2912 2913 2914 2914
2963 2961 2959 2957 2956 2953 2952 2950 2948 2946 2945 2943 2941 2940 2939 2937 2936 2935 2933 2932 2930 2929 2928 2927 2926 2926 2925 2924 2923 2922 2921 2920 2920 2919 2918 2918 2917 2917 2916 2916 2915 2915 2914 2914 2914 2912 2910 2909 2909 2908 2907 2907 2907 2907 2907 2908 2908 2908 2909 2909 2909 2910 2910 2910 2911 2911 2912 2912 2913
2962 2960 2958 2956 2954 2952 2950 2948 2947 2945 2943 2942 2940 2939 2937 2936 2935 2933 2932 2930 2929 2927 2926 2925 2924 2924 2923 2922 2921 2920 2919 2919 2918 2917 2917 2917 2916 2915 2915 2915 2914 2914 2914 2913 2912 2911 2910 2909 2908 2908 2907 2907 2906 2906 2907 2907 2907 2907 2907 2907 2908 2908 2908 2909 2909 2910 2910 2911 2911
2960 2958 2957 2955 2953 2951 2949 2947 2946 2944 2942 2940 2939 2937 2936 2935 2933 2932 2931 2929 2928 2926 2925 2923 2922 2922 2921 2920 2920 2919 2918 2917 2917 2916 2916 2915 2914 2914 2914 2913 2913 2913 2913 2912 2912 2910 2909 2908 2908 2907 2907 2906 2906 2906 2905 2906 2906 2906 2906 2906 2907 2907 2907 2907 2907 2908 2908 2909 2910
2958 2957 2955 2953 2951 2950 2948 2946 2944 2942 2941 2939 2937 2936 2934 2933 2932 2931 2929 2928 2927 2925 2923 2922 2921 2920 2919 2918 2917 2917 2916 2916 2915 2914 2914 2913 2913 2912 2912 2912 2912 2912 2912 2912 2911 2909 2907 2906 2906 2906 2906 2905 2905 2905 2904 2904 2904 2905 2905 2905 2905 2905 2905 2906 2906 2907 2907 2907 2908
2957 2955 2953 2952 2950 2948 2946 2945 2943 2941 2939 2937 2936 2934 2933 2932 2930 2929 2928 2926 2925 2924 2922 2921 2919 2918 2917 2916 2915 2915 2914 2914 2913 2912 2912 2912 2911 2911 2910 2910 2910 2911 2911 2911 2911 2908 2905 2904 2904 2904 2904 2904 2903 2903 2903 2903 2903 2903 2903 2903 2904 2904 2904 2904 2905 2905 2906 2906 2907
2955 2953 2952 2950 2948 2947 2945 2943 2942 2940 2938 2936 2935 2933 2931 2930 2929 2927 2926 2925 2924 2922 2921 2920 2918 2917 2916 2914 2914 2913 2912 2912 2911 2911 2910 2909 2909 2909 2908 2908 2909 2909 2909 2910 2909 2907 2903 2902 2902 2902 2902 2902 2902 2901 2901 2901 2901 2901 2902 2902 2902 2902 2902 2903 2903 2904 2904 2905 2905
2953 2952 2950 2948 2947 2945 2943 2941 2940 2938 2937 2935 2933 2932 2930 2928 2927 2926 2925 2923 2922 2921 2919 2918 2917 2915 2914 2913 2912 2911 2910 2910 2909 2909 2908 2908 2907 2907 2907 2907 2907 2907 2907 2908 2907 2904 2901 2900 2900 2899 2899 2899 2899 2899 2899 2899 2899 2899 2899 2900 2900 2900 2901 2901 2901 2902 2902 2902 2903
2952 2950 2948 2946 2944 2942 2941 2939 2938 2936 2935 2933 2932 2930 2928 2927 2926 2924 2923 2922 2921 2919 2918 2917 2915 2914 2913 2912 2910 2909 2908 2908 2907 2907 2907 2906 2906 2905 2905 2905 2905 2905 2905 2906 2905 2902 2900 2899 2898 2897 2897 2897 2897 2897 2897 2897 2897 2897 2897 2897 2898 2898 2898 2899 2899 2899 2900 2900 2901
2950 2948 2946 2944 2942 2941 2939 2937 2936 2934 2932 2931 2930 2928 2927 2925 2924 2922 2921 2920 2919 2917 2916 2915 2914 2913 2912 2910 2909 2908 2907 2907 2906 2906 2905 2904 2904 2904 2903 2903 2903 2903 2903 2904 2904 2902 2898 2897 2896 2896 2896 2896 2896 2895 2895 2895 2895 2895 2895 2895 2896 2896 2896 2897 2897 2897 2897 2898 2898
2948 2946 2944 2942 2940 2938 2937 2935 2933 2932 2930 2929 2927 2926 2925 2923 2922 2921 2920 2918 2917 2916 2915 2914 2912 2912 2910 2909 2908 2907 2906 2905 2905 2904 2904 2903 2903 2902 2902 2902 2902 2902 2902 2902 2904 2901 2896 2895 2895 2894 2894 2894 2894 2894 2893 2893 2893 2893 2893 2893 2893 2894 2894 2894 2895 2895 2895 2896 2896
2947 2945 2942 2941 2938 2937 2935 2933 2932 2930 2928 2927 2925 2924 2922 2921 2920 2919 2918 2917 2915 2914 2913 2912 2911 2910 2909 2908 2907 2906 2905 2904 2903 2903 2902 2902 2902 2901 2901 2901 2901 2901 2901 2901 2903 2900 2895 2894 2893 2893 2892 2892 2892 2892 2892 2892 2891 2891 2891 2891 2891 2892 2892 2892 2892 2892 2893 2893 2894
2946 2943 2941 2939 2937 2935 2933 2932 2930 2928 2926 2925 2923 2922 2921 2919 2918 2917 2916 2914 2913 2912 2911 2910 2909 2908 2907 2906 2905 2904 2903 2903 2902 2902 2901 2901 2900 2900 2900 2900 2900 2900 2899 2900 2901 2899 2895 2893 2892 2892 2891 2891 2891 2891 2891 2890 2890 2889 2889 2889 2889 2889 2889 2890 2890 2890 2891 2891 2891
2945 2942 2940 2938 2936 2934 2932 2930 2928 2927 2925 2923 2922 2920 2919 2917 2916 2915 2914 2912 2911 2910 2909 2908 2907 2906 2905 2905 2904 2903 2902 2901 2901 2900 2900 2899 2899 2899 2899 2898 2898 2898 2898 2898 2898 2898 2897 2893 2892 2891 2891 2890 2890 2890 2890 2889 2888 2888 2887 2887 2887 2887 2887 2887 2888 2888 2888 2889 2889
2944 2942 2939 2937 2935 2933 2931 2929 2927 2925 2923 2922 2920 2918 2917 2915 2914 2913 2912 2911 2909 2908 2907 2906 2905 2904 2904 2903 2902 2901 2900 2900 2899 2899 2898 2898 2898 2898 2897 2897 2897 2897 2897 2897 2896 2897 2897 2894 2892 2891 2890 2889 2889 2889 2888 2888 2887 2887 2886 2886 2886 2886 2886 2886 2886 2886 2887 2887 2887
2943 2941 2939 2936 2934 2932 2930 2928 2926 2925 2923 2921 2919 2917 2915 2914 2912 2911 2910 2909 2907 2906 2905 2904 2903 2902 2902 2901 2900 2899 2899 2898 2897 2897 2897 2897 2897 2897 2896 2896 2896 2896 2896 2896 2895 2895 2895 2895 2893 2892 2890 2889 2888 2888 2887 2887 2887 2886 2885 2885 2885 2884 2884 2884 2884 2885 2885 2885 2885